Location: Diati
(11.8376°N, 2.5966°E)
Time: 17:59:57
(UTC+00:00)

Okean-O - Pass Details

Date: 21 September 2020
Orbit: 639 x 641 km, 98.2° (Epoch: 19 October)

Event Time Altitude Azimuth Distance (km) Brightness Sun altitude
Rises 19:07:07 0° 185° (S) 2,934 6.0 -20.6°
Reaches altitude 10° 19:09:28 10° 194° (SSW) 2,025 5.3 -21.2°
Maximum altitude 19:13:28 34° 259° (W) 1,052 4.3 -22.2°
Drops below altitude 10° 19:17:28 10° 325° (NW) 2,026 5.7 -23.2°
Sets 19:19:50 0° 334° (NNW) 2,935 6.5 -23.7°
